UT5DWW-13 Weather Reports


time (UTC)temp
F
wind
direction
speed
knots
gust
knots
rain 1hr
in
rain 24hr
in
rain mn
in
humidity
%
barometer
mb
20260906020704 56 115 1.7 2.6 0.00 0.02 0.00 93 993.8
20260906013705 56 120 0.9 1.7 0.00 0.02 0.00 92 993.7
20260906010703 57 79 1.7 1.7 0.00 0.02 0.00 92 993.6
20260906003659 57 109 0.0 0.9 0.00 0.02 0.00 92 993.5
20260906000658 57 95 0.9 1.7 0.00 0.02 0.00 92 993.5
20260905233656 58 89 0.0 0.0 0.00 0.02 0.00 91 993.6
20260905230654 58 108 0.0 0.0 0.00 0.02 0.00 91 993.6
20260905223653 58 126 0.9 1.7 0.00 0.02 0.02 91 993.2
20260905220651 58 93 0.9 1.7 0.00 0.02 0.02 90 993.2
20260905213649 59 89 0.9 1.7 0.00 0.02 0.02 89 993.0
20260905210647 59 58 0.9 0.9 0.00 0.02 0.02 87 993.0
20260905203650 60 80 0.9 1.7 0.00 0.02 0.02 88 992.7
20260905200648 59 75 0.0 1.7 0.00 0.02 0.02 90 992.6
20260905193646 59 87 0.0 0.9 0.00 0.02 0.02 89 992.2
20260905190641 60 37 0.0 0.9 0.00 0.02 0.02 88 992.2
20260905183639 62 66 1.7 3.5 0.00 0.02 0.02 85 992.1
20260905180641 63 75 0.9 1.7 0.00 0.02 0.02 83 991.7
20260905173636 63 117 1.7 1.7 0.00 0.02 0.02 81 991.6
20260905170634 64 145 1.7 1.7 0.00 0.02 0.02 82 991.5
20260905163632 66 94 0.9 0.9 0.00 0.02 0.02 74 991.6
20260905160630 66 63 0.0 0.0 0.00 0.02 0.02 76 991.4
20260905153629 67 44 0.0 0.9 0.00 0.02 0.02 77 991.2
20260905150631 67 44 0.0 0.0 0.00 0.02 0.02 77 991.1
20260905143625 66 18 0.0 0.0 0.00 0.02 0.02 79 990.9
20260905140627 66 322 0.0 1.7 0.01 0.02 0.02 79 991.4
20260905133622 64 343 4.3 6.1 0.01 0.02 0.02 84 991.5
20260905130624 66 304 0.9 4.3 0.00 0.01 0.01 81 991.2
20260905123619 65 100 0.0 0.9 0.00 0.01 0.01 83 990.7
20260905120619 64 141 0.9 1.7 0.01 0.01 0.01 84 990.7
20260905113624 64 143 0.0 0.9 0.01 0.01 0.01 83 991.5
20260905110615 68 303 8.7 13.0 0.00 0.00 0.00 67 991.7
20260905103614 71 302 5.2 9.6 0.00 0.00 0.00 65 991.6
20260905100610 71 305 2.6 6.1 0.00 0.00 0.00 65 991.1
20260905093610 71 302 5.2 7.0 0.00 0.00 0.00 62 990.8
20260905090609 72 330 2.6 5.2 0.00 0.00 0.00 61 989.9
20260905083609 73 278 6.1 11.3 0.00 0.00 0.00 58 990.0
20260905080605 73 308 8.7 11.3 0.00 0.00 0.00 58 989.5
20260905073603 73 248 5.2 8.7 0.00 0.00 0.00 58 989.1
20260905070602 71 213 1.7 4.3 0.00 0.00 0.00 64 988.9
20260905063600 70 234 4.3 7.0 0.00 0.00 0.00 65 988.9
20260905060601 73 216 5.2 7.8 0.00 0.00 0.00 57 988.6
20260905053557 72 165 221.6 221.6 0.00 0.00 0.00 60 988.7
20260905050553 0 767 221.6 221.6 0.00 0.00 0.00 988.5
20260905043555 0 767 221.6 221.6 0.00 0.00 0.00 988.6
20260905040552 0 767 221.6 221.6 0.00 0.00 0.00 988.5
20260905033550 66 101 1.7 3.5 0.00 0.00 0.00 68 988.2
20260905030548 66 134 0.9 2.6 0.00 0.00 0.00 67 988.4
20260905023544 66 98 1.7 6.1 0.00 0.00 0.00 67 988.2